Weather History for Nome, AK

Change the Weather History Date:

Saturday, June 9, 2012

  Actual Average Record
Temperature  
Mean Temperature 51 °F 46 °F  
Max Temperature 59 °F 53 °F 79 °F (1928)
Min Temperature 43 °F 39 °F 27 °F (1916)
Degree Days  
Heating Degree Days 14 19  
Month to date heating degree days 140 183  
Since 1 June heating degree days 140 183  
Since 1 July heating degree days 14847 13371  
Cooling Degree Days 0    
Month to date cooling degree days 0  
Year to date cooling degree days 0  
Since 1 June cooling degree days 0  
Growing Degree Days 6 (Base 50)    
Moisture  
Dew Point 45 °F    
Average Humidity 0    
Maximum Humidity 0    
Minimum Humidity 0    
Precipitation  
Precipitation T in 0.03 in 0.37 in (1979)
Month to date precipitation T 0.26  
Year to date precipitation 2.78 4.40  
Snow  
Snow 0.00 in 0.00 in T in (2008)
Month to date snowfall 0.0 0.2  
Since 1 June snowfall 0.0 0.2  
Since 1 July snowfall 80.6 75.6  
Snow Depth 0.00 in    
Sea Level Pressure  
Sea Level Pressure 29.83 in    
Wind  
Wind Speed 7 mph (ESE)    
Max Wind Speed 17 mph    
Max Gust Speed 20 mph    
Visibility 10 miles    
Events      
T = Trace of Precipitation, MM = Missing Value Source: NWS Daily Summary

Daily Weather History Graph

Daily Weather History Graph

Search for Another Location

Airport:

Trip Planner

Search our weather history database for the weather conditions in past years. The results will help you decide how hot, cold, wet, or windy it might be!

Date:

Astronomy

Jun. 09, 2012 Rise Set
Actual Time 4:29 AM AKDT 1:34 AM AKDT
Civil Twilight Sun does not rise Sun does not rise
Nautical Twilight Sun does not rise Sun does not rise
Astronomical Twilight Sun does not rise Sun does not rise
Moon 2:43 AM AKDT (6/9) 12:57 PM AKDT (6/9)
Length of Visible Light 24h 00m
Length of Day
21h 05m
Waning Gibbous, 66% of the Moon is Illuminated
Jun 9
Waning Gibbous
Jun 11
Last Quarter
Jun 19
New
Jun 26
First Quarter
Jul 3
Full

Hourly Weather History & Observations

Time (AKDT) Temp. Windchill Dew Point Humidity Pressure Visibility Wind Dir Wind Speed Gust Speed Precip Events Conditions
12:53 AM 59.0 °F - 45.0 °F 60% 29.77 in 10.0 mi Calm Calm - N/A   Overcast
1:53 AM 57.0 °F - 46.9 °F 69% 29.77 in 10.0 mi Calm Calm - N/A   Overcast
2:53 AM 52.0 °F - 45.0 °F 77% 29.77 in 10.0 mi SE 3.5 mph - N/A   Overcast
3:53 AM 50.0 °F - 42.1 °F 74% 29.78 in 10.0 mi WSW 3.5 mph - N/A   Overcast
4:53 AM 50.0 °F - 43.0 °F 77% 29.78 in 10.0 mi Calm Calm - N/A   Overcast
5:53 AM 51.1 °F - 44.1 °F 77% 29.77 in 10.0 mi Calm Calm - N/A   Overcast
6:53 AM 52.0 °F - 45.0 °F 77% 29.77 in 10.0 mi NE 4.6 mph - N/A   Overcast
7:53 AM 54.0 °F - 44.1 °F 69% 29.76 in 10.0 mi Calm Calm - N/A   Overcast
8:53 AM 51.1 °F - 43.0 °F 74% 29.76 in 10.0 mi Calm Calm - N/A   Overcast
9:53 AM 54.0 °F - 43.0 °F 66% 29.75 in 10.0 mi Calm Calm - N/A   Overcast
10:53 AM 54.0 °F - 42.1 °F 64% 29.77 in 10.0 mi ESE 13.8 mph - N/A   Overcast
11:53 AM 51.1 °F - 43.0 °F 74% 29.79 in 10.0 mi SE 3.5 mph - N/A   Overcast
12:53 PM 57.9 °F - 45.0 °F 62% 29.80 in 10.0 mi ENE 11.5 mph - N/A   Overcast
1:53 PM 55.9 °F - 42.1 °F 60% 29.82 in 10.0 mi East 10.4 mph - N/A   Mostly Cloudy
2:53 PM 53.1 °F - 44.1 °F 71% 29.84 in 10.0 mi ESE 13.8 mph - N/A   Overcast
3:53 PM 50.0 °F - 44.1 °F 80% 29.85 in 10.0 mi SE 8.1 mph - N/A   Overcast
4:53 PM 50.0 °F - 46.0 °F 86% 29.86 in 10.0 mi ESE 10.4 mph - 0.00 in   Overcast
5:38 PM 51.8 °F - 46.4 °F 82% 29.86 in 10.0 mi ESE 9.2 mph - N/A   Overcast
5:53 PM 50.0 °F - 46.0 °F 86% 29.87 in 10.0 mi SE 9.2 mph - N/A   Overcast
6:53 PM 48.9 °F - 46.9 °F 93% 29.88 in 10.0 mi SE 11.5 mph - N/A   Overcast
7:12 PM 48.2 °F - 46.4 °F 93% 29.88 in 10.0 mi SE 11.5 mph - N/A   Overcast
7:28 PM 50.0 °F - 46.4 °F 87% 29.88 in 10.0 mi ESE 11.5 mph - N/A   Overcast
7:53 PM 50.0 °F - 46.9 °F 89% 29.88 in 10.0 mi ESE 12.7 mph - N/A   Overcast
8:53 PM 50.0 °F - 46.9 °F 89% 29.89 in 10.0 mi ESE 10.4 mph - N/A   Overcast
9:20 PM 50.0 °F - 46.4 °F 87% 29.89 in 10.0 mi East 12.7 mph - N/A   Overcast
9:53 PM 50.0 °F - 46.9 °F 89% 29.90 in 10.0 mi East 11.5 mph - N/A   Overcast
10:06 PM 48.2 °F - 46.4 °F 93% 29.90 in 10.0 mi East 13.8 mph - N/A   Overcast
10:46 PM 48.2 °F - 46.4 °F 93% 29.91 in 10.0 mi East 12.7 mph - N/A   Overcast
10:53 PM 48.0 °F - 46.0 °F 93% 29.91 in 10.0 mi East 13.8 mph - N/A   Overcast
11:10 PM 46.4 °F 40.1 °F 46.4 °F 100% 29.91 in 10.0 mi East 15.0 mph - N/A   Overcast
11:53 PM 45.0 °F 38.9 °F 44.1 °F 97% 29.93 in 10.0 mi East 12.7 mph - N/A   Overcast